This is the latest recevied weather packets stored in our database for station/object S59MA-6. If no packets are shown the sender has not sent any weather packets the latest 10 day(s).
| Time | Temp. | Humidity | Pressure | Rain* | Wind** | Luminosity | Snow |
|---|---|---|---|---|---|---|---|
| 1777581363 | 5.56° C | 53% | 1016.7 hPa | 0 mm | - | - | - |
| 1777581062 | 5.56° C | 53% | 1016.7 hPa | 0 mm | - | - | - |
| 1777580762 | 5.56° C | 52% | 1016.6 hPa | 0 mm | - | - | - |
| 1777580462 | 5.56° C | 52% | 1016.5 hPa | 0 mm | - | - | - |
| 1777580162 | 6.11° C | 51% | 1016.5 hPa | 0 mm | - | - | - |
| 1777579863 | 6.11° C | 51% | 1016.2 hPa | 0 mm | - | - | - |
| 1777579562 | 6.67° C | 50% | 1016.1 hPa | 0 mm | - | - | - |
| 1777579262 | 6.67° C | 49% | 1016.2 hPa | 0 mm | - | - | - |
| 1777578962 | 6.67° C | 49% | 1016.1 hPa | 0 mm | - | - | - |
| 1777578062 | 7.78° C | 47% | 1015.9 hPa | 132.08 mm | - | - | - |
| 1777577762 | 7.78° C | 46% | 1016 hPa | 132.08 mm | - | - | - |
| 1777577162 | 8.33° C | 44% | 1015.7 hPa | 132.08 mm | - | - | - |
| 1777576862 | 8.89° C | 43% | 1015.5 hPa | 253.75 mm | - | - | - |
| 1777576562 | 9.44° C | 42% | 1015.6 hPa | 253.75 mm | - | - | - |
| 1777576263 | 9.44° C | 42% | 1015.5 hPa | 253.75 mm | - | - | - |
| 1777575963 | 9.44° C | 41% | 1015.3 hPa | 253.75 mm | - | - | - |
| 1777575662 | 9.44° C | 42% | 1015.2 hPa | 253.75 mm | - | - | - |
| 1777575363 | 10° C | 41% | 1015.3 hPa | 253.75 mm | - | - | - |
| 1777574464 | 10° C | 41% | 1012.2 hPa | 253.75 mm | - | - | - |
| 1777573862 | 10.56° C | 40% | 1011.2 hPa | 253.75 mm | - | - | - |
| 1777573563 | 10.56° C | 40% | 1012.7 hPa | 253.75 mm | - | - | - |
| 1777573262 | 10.56° C | 39% | 1013.5 hPa | 132.08 mm | - | - | - |
| 1777572964 | 10.56° C | 39% | 1014.4 hPa | 0 mm | - | - | - |
| 1777572663 | 11.11° C | 39% | 1014.2 hPa | 0 mm | - | - | - |
| 1777572366 | 11.11° C | 39% | 1014.3 hPa | 0 mm | - | - | - |
* Rain latest hour (hover to see other rain measurements)
** Current wind speed in m/s (hover to see current wind gust speed)